THY40Y LTFM-CYUL

Flight info

Callsign THY40Y
Flight time N/A
Altitude 36000
Route TUDBU1E/36 TUDBU Q26 ETUBA T226 NAVOD DCT MOPUG DCT BEGLA DCT DITIS DCT SOPGA/N0487F380 DCT VARIK L602 PEROX Z715 UNAVI Z93 KODUK/N0435F240 Z93 ETOLU/N0448F260 Z719 BIBTA/N0434F240 N850 GISEM Z505 ARPEG/N0488F380 Z850 HMM L602 MIMVA DCT OTBED Y70 GOLES/N0433F240 L975 DESIG L70 PENIL/N0481F380 M144 BAGSO DCT DOGAL/M084F390 DCT 54N020W 53N030W 5130N04000W 50N050W DCT ELSIR/N0478F400 N412A MIILS DCT TIBOS ROCKT3
Aircraft A359/H-SDE2E3GHIJ3J4J5LM1ORWXY/LB1D1

Departure

Time 2026-05-06 21:09
Airport İstanbul Airport (LTFM)

Arrival

Time N/A
Airport Montreal / Pierre Elliott Trudeau International Airport (CYUL)
Time Latitude Longitude Altitude Speed Heading
2026-05-06 20:36 41.26447 28.74952 335 ft 0 kts 290°
2026-05-06 20:59 41.26446 28.74954 340 ft 2 kts 290°
2026-05-06 20:59 41.26438 28.74985 336 ft 4 kts 285°
2026-05-06 20:59 41.26432 28.75020 335 ft 4 kts 286°
2026-05-06 21:00 41.26427 28.75048 340 ft 4 kts 257°
2026-05-06 21:00 41.26440 28.75069 335 ft 4 kts 195°
2026-05-06 21:00 41.26458 28.75075 335 ft 0 kts 197°
2026-05-06 21:04 41.26449 28.75071 335 ft 4 kts 198°
2026-05-06 21:04 41.26415 28.75055 335 ft 6 kts 198°
2026-05-06 21:04 41.26370 28.75036 337 ft 7 kts 196°
2026-05-06 21:04 41.26315 28.75015 336 ft 9 kts 196°
2026-05-06 21:05 41.26258 28.75028 336 ft 9 kts 141°
2026-05-06 21:05 41.26244 28.75102 339 ft 9 kts 90°
2026-05-06 21:05 41.26244 28.75187 340 ft 10 kts 89°
2026-05-06 21:05 41.26245 28.75280 340 ft 10 kts 88°
2026-05-06 21:06 41.26247 28.75381 338 ft 11 kts 89°
2026-05-06 21:06 41.26248 28.75467 340 ft 9 kts 89°
2026-05-06 21:06 41.26249 28.75540 340 ft 0 kts 89°
2026-05-06 21:07 41.26249 28.75556 340 ft 6 kts 89°
2026-05-06 21:07 41.26252 28.75629 340 ft 8 kts 75°
2026-05-06 21:07 41.26293 28.75665 337 ft 7 kts
2026-05-06 21:08 41.26340 28.75665 336 ft 7 kts 359°
2026-05-06 21:08 41.26356 28.75664 340 ft 0 kts 359°
2026-05-06 21:08 41.26475 28.75664 336 ft 44 kts 360°
2026-05-06 21:09 41.27022 28.75653 336 ft 112 kts 359°
2026-05-06 21:09 41.28001 28.75634 352 ft 168 kts 359°
2026-05-06 21:09 41.29210 28.75594 871 ft 178 kts
2026-05-06 21:09 41.30432 28.75742 1643 ft 181 kts 18°
2026-05-06 21:10 41.31565 28.76684 1876 ft 201 kts 38°
2026-05-06 21:10 41.32728 28.77887 2108 ft 223 kts 35°
2026-05-06 21:10 41.34068 28.79106 2387 ft 243 kts 31°
2026-05-06 21:10 41.35537 28.80319 2844 ft 253 kts 29°
2026-05-06 21:11 41.37069 28.81523 3474 ft 257 kts 27°
2026-05-06 21:11 41.38733 28.82372 4050 ft 256 kts
2026-05-06 21:11 41.40498 28.82338 4748 ft 253 kts 352°
2026-05-06 21:11 41.42250 28.82110 5443 ft 253 kts 352°
2026-05-06 21:12 41.44012 28.81875 6154 ft 254 kts 352°
2026-05-06 21:12 41.45756 28.81650 6836 ft 255 kts 352°
2026-05-06 21:12 41.47534 28.81424 7467 ft 259 kts 353°
2026-05-06 21:12 41.49339 28.81198 7991 ft 262 kts 353°
2026-05-06 21:13 41.51170 28.80971 8664 ft 265 kts 353°
2026-05-06 21:13 41.53011 28.80743 9368 ft 267 kts 354°
2026-05-06 21:13 41.54883 28.80512 10058 ft 270 kts 354°
2026-05-06 21:13 41.56769 28.80280 10467 ft 284 kts 354°
2026-05-06 21:14 41.58785 28.79971 10743 ft 300 kts 349°
2026-05-06 21:14 41.60770 28.78940 11021 ft 317 kts 327°
2026-05-06 21:14 41.62313 28.76745 11301 ft 336 kts 302°
2026-05-06 21:14 41.63290 28.73836 11687 ft 348 kts 293°
2026-05-06 21:15 41.64155 28.70778 12252 ft 354 kts 293°
2026-05-06 21:15 41.65032 28.67687 12805 ft 358 kts 293°
2026-05-06 21:15 41.65933 28.64550 13428 ft 362 kts 294°
2026-05-06 21:15 41.66751 28.61347 14013 ft 368 kts 286°
2026-05-06 21:16 41.67063 28.57917 14551 ft 374 kts 275°
2026-05-06 21:16 41.67114 28.54416 15093 ft 378 kts 274°
2026-05-06 21:16 41.67138 28.50931 15637 ft 381 kts 274°
2026-05-06 21:16 41.67250 28.47385 16174 ft 382 kts 280°
2026-05-06 21:17 41.67883 28.43952 16704 ft 380 kts 294°
2026-05-06 21:17 41.68897 28.40682 17254 ft 381 kts 297°
2026-05-06 21:17 41.69979 28.37412 17793 ft 384 kts 297°
2026-05-06 21:17 41.71064 28.34130 18362 ft 386 kts 297°
2026-05-06 21:18 41.72151 28.30822 18867 ft 389 kts 297°
2026-05-06 21:18 41.73229 28.27531 19351 ft 391 kts 297°
2026-05-06 21:18 41.74322 28.24183 19859 ft 394 kts 297°
2026-05-06 21:18 41.75421 28.20808 20379 ft 396 kts 297°
2026-05-06 21:19 41.76527 28.17405 20905 ft 399 kts 297°
2026-05-06 21:19 41.77639 28.13980 21424 ft 401 kts 297°
2026-05-06 21:19 41.78771 28.10543 21927 ft 403 kts 298°
2026-05-06 21:19 41.80130 28.07314 22416 ft 402 kts 307°
2026-05-06 21:20 41.81768 28.04271 22884 ft 405 kts 309°
2026-05-06 21:20 41.83487 28.01224 23266 ft 410 kts 309°
2026-05-06 21:20 41.85212 27.98169 23746 ft 413 kts 309°
2026-05-06 21:20 41.86955 27.95073 24193 ft 414 kts 309°
2026-05-06 21:21 41.88692 27.91979 24661 ft 415 kts 309°
2026-05-06 21:21 41.90410 27.88914 25142 ft 416 kts 309°
2026-05-06 21:21 41.92153 27.85799 25606 ft 417 kts 309°
2026-05-06 21:21 41.93894 27.82684 26049 ft 417 kts 309°
2026-05-06 21:22 41.95638 27.79567 26570 ft 417 kts 310°
2026-05-06 21:22 41.97500 27.76593 26963 ft 417 kts 315°
2026-05-06 21:22 41.99487 27.73739 27365 ft 418 kts 316°
2026-05-06 21:22 42.01524 27.70933 27768 ft 420 kts 317°
2026-05-06 21:23 42.03585 27.68144 28192 ft 421 kts 317°
2026-05-06 21:23 42.05664 27.65340 28578 ft 423 kts 317°
2026-05-06 21:23 42.07743 27.62526 28985 ft 425 kts 317°
2026-05-06 21:23 42.09825 27.59692 29308 ft 428 kts 316°
2026-05-06 21:24 42.11899 27.56857 29625 ft 430 kts 316°
2026-05-06 21:24 42.14004 27.53965 30013 ft 432 kts 316°
2026-05-06 21:24 42.16108 27.51069 30349 ft 433 kts 316°
2026-05-06 21:24 42.18222 27.48154 30618 ft 435 kts 316°
2026-05-06 21:25 42.20345 27.45224 30880 ft 437 kts 316°
2026-05-06 21:25 42.22476 27.42281 31137 ft 439 kts 316°
2026-05-06 21:25 42.24610 27.39330 31380 ft 440 kts 316°
2026-05-06 21:25 42.26731 27.36396 31565 ft 443 kts 316°
2026-05-06 21:26 42.28894 27.33400 31801 ft 445 kts 316°
2026-05-06 21:26 42.31060 27.30397 32058 ft 446 kts 316°
2026-05-06 21:26 42.33227 27.27388 32376 ft 445 kts 315°
2026-05-06 21:26 42.35364 27.24418 32758 ft 443 kts 315°
2026-05-06 21:27 42.37511 27.21430 33111 ft 442 kts 315°
2026-05-06 21:27 42.39647 27.18456 33449 ft 440 kts 315°
2026-05-06 21:27 42.41787 27.15473 33685 ft 441 kts 315°
2026-05-06 21:27 42.43927 27.12488 33874 ft 442 kts 315°
2026-05-06 21:28 42.46068 27.09498 34182 ft 441 kts 315°
2026-05-06 21:28 42.48203 27.06513 34425 ft 440 kts 315°
2026-05-06 21:28 42.50307 27.03569 34612 ft 441 kts 315°
2026-05-06 21:28 42.52440 27.00580 34786 ft 441 kts 315°
2026-05-06 21:29 42.54574 26.97587 34973 ft 441 kts 315°
2026-05-06 21:29 42.56705 26.94594 35167 ft 441 kts 315°
2026-05-06 21:29 42.58842 26.91592 35272 ft 443 kts 315°
2026-05-06 21:29 42.60981 26.88582 35423 ft 443 kts 315°
2026-05-06 21:30 42.63128 26.85559 35628 ft 443 kts 315°
2026-05-06 21:30 42.65269 26.82540 35813 ft 443 kts 315°
2026-05-06 21:30 42.67406 26.79524 35983 ft 443 kts 315°
2026-05-06 21:31 42.71669 26.73497 36080 ft 448 kts 315°
2026-05-06 21:31 42.76007 26.67353 36082 ft 450 kts 315°
2026-05-06 21:32 42.80272 26.61118 36074 ft 450 kts 310°
2026-05-06 21:32 42.85165 26.50189 36070 ft 453 kts 300°
2026-05-06 21:33 42.88106 26.42580 36066 ft 453 kts 299°
2026-05-06 21:33 42.91026 26.34942 36068 ft 453 kts 299°
2026-05-06 21:34 42.93952 26.27310 36062 ft 453 kts 300°
2026-05-06 21:34 42.96861 26.19730 36055 ft 453 kts 300°
2026-05-06 21:35 42.99791 26.12088 36046 ft 454 kts 299°
2026-05-06 21:35 43.02710 26.04450 36040 ft 454 kts 299°
2026-05-06 21:36 43.05632 25.96783 36028 ft 454 kts 299°
2026-05-06 21:36 43.08530 25.89157 36021 ft 454 kts 299°
2026-05-06 21:37 43.11439 25.81483 36031 ft 454 kts 299°
2026-05-06 21:37 43.14351 25.73795 36023 ft 454 kts 300°
2026-05-06 21:38 43.17800 25.66559 36031 ft 453 kts 306°
2026-05-06 21:38 43.21468 25.59588 36036 ft 453 kts 307°
2026-05-06 21:39 43.25189 25.52611 36017 ft 453 kts 307°
2026-05-06 21:39 43.28908 25.45612 36016 ft 453 kts 307°
2026-05-06 21:40 43.32586 25.38657 36013 ft 453 kts 307°
2026-05-06 21:40 43.36282 25.31642 35998 ft 453 kts 307°
2026-05-06 21:41 43.39985 25.24596 36002 ft 454 kts 307°
2026-05-06 21:41 43.43663 25.17580 36003 ft 454 kts 307°
2026-05-06 21:42 43.47357 25.10520 36013 ft 454 kts 307°
2026-05-06 21:42 43.51048 25.03448 36005 ft 455 kts 306°
2026-05-06 21:43 43.54718 24.96398 36008 ft 455 kts 306°
2026-05-06 21:43 43.58412 24.89284 36003 ft 455 kts 306°
2026-05-06 21:44 43.62097 24.82172 35994 ft 455 kts 306°
2026-05-06 21:44 43.65752 24.75103 36004 ft 455 kts 306°
2026-05-06 21:45 43.69434 24.67962 36002 ft 455 kts 306°
2026-05-06 21:45 43.73106 24.60822 36000 ft 455 kts 306°
2026-05-06 21:46 43.76307 24.55039 35981 ft 455 kts 311°
2026-05-06 21:46 43.81241 24.47475 35976 ft 455 kts 312°
2026-05-06 21:47 43.84846 24.42074 35994 ft 455 kts 312°
2026-05-06 21:47 43.89121 24.35673 35984 ft 455 kts 312°
2026-05-06 21:48 43.93419 24.29207 35986 ft 455 kts 312°
2026-05-06 21:48 43.97685 24.22765 36003 ft 455 kts 311°
2026-05-06 21:49 44.01963 24.16285 35992 ft 455 kts 311°
2026-05-06 21:49 44.06239 24.09795 36011 ft 455 kts 311°
2026-05-06 21:50 44.10514 24.03292 35992 ft 455 kts 311°
2026-05-06 21:50 44.14760 23.96820 36005 ft 456 kts 311°
2026-05-06 21:51 44.19037 23.90283 36007 ft 456 kts 311°
2026-05-06 21:51 44.23314 23.83731 35988 ft 456 kts 310°
2026-05-06 21:52 44.27580 23.77182 36003 ft 456 kts 310°
2026-05-06 21:52 44.31819 23.70660 36009 ft 457 kts 310°
2026-05-06 21:53 44.36085 23.64081 36023 ft 457 kts 310°
2026-05-06 21:53 44.40351 23.57482 36021 ft 456 kts 310°
2026-05-06 21:54 44.44614 23.50876 36016 ft 456 kts 310°
2026-05-06 21:54 44.48842 23.44310 35997 ft 456 kts 310°
2026-05-06 21:55 44.53092 23.37693 36009 ft 457 kts 309°
2026-05-06 21:55 44.57350 23.31046 36010 ft 458 kts 309°
2026-05-06 21:56 44.61611 23.24381 36009 ft 458 kts 309°
2026-05-06 21:56 44.65832 23.17762 36014 ft 457 kts 309°
2026-05-06 21:57 44.70071 23.11099 36011 ft 456 kts 309°
2026-05-06 21:57 44.74302 23.04433 36021 ft 456 kts 309°
2026-05-06 21:58 44.78528 22.97758 36018 ft 456 kts 309°
2026-05-06 21:58 44.82725 22.91114 36017 ft 456 kts 309°
2026-05-06 21:59 44.86953 22.84404 36019 ft 460 kts 309°
2026-05-06 21:59 44.91206 22.77638 36023 ft 461 kts 309°
2026-05-06 22:00 44.95431 22.70903 36034 ft 461 kts 309°
2026-05-06 22:00 44.99676 22.64119 36033 ft 461 kts 308°
2026-05-06 22:01 45.03924 22.57312 36029 ft 461 kts 308°
2026-05-06 22:01 45.08169 22.50497 36029 ft 461 kts 308°
2026-05-06 22:02 45.12404 22.43677 36020 ft 461 kts 308°
2026-05-06 22:02 45.16613 22.36880 36017 ft 463 kts 308°
2026-05-06 22:03 45.20880 22.29973 36012 ft 466 kts 308°
2026-05-06 22:03 45.25130 22.23082 35998 ft 466 kts 308°
2026-05-06 22:04 45.29401 22.16138 36001 ft 466 kts 308°
2026-05-06 22:04 45.33664 22.09189 35988 ft 466 kts 308°
2026-05-06 22:05 45.37920 22.02234 35973 ft 466 kts 308°
2026-05-06 22:05 45.42171 21.95271 35974 ft 466 kts 308°
2026-05-06 22:06 45.46421 21.88291 35969 ft 466 kts 308°
2026-05-06 22:06 45.50664 21.81303 35958 ft 469 kts 308°
2026-05-06 22:07 45.54940 21.74244 35957 ft 470 kts 308°
2026-05-06 22:07 45.59208 21.67182 35951 ft 470 kts 308°
2026-05-06 22:08 45.63479 21.60099 35953 ft 470 kts 308°
2026-05-06 22:08 45.67714 21.53053 35959 ft 470 kts 308°
2026-05-06 22:09 45.71974 21.45950 35929 ft 469 kts 308°
2026-05-06 22:09 45.76226 21.38841 35929 ft 470 kts 307°
2026-05-06 22:10 45.80458 21.31748 35945 ft 472 kts 307°
2026-05-06 22:10 45.84733 21.24562 35939 ft 474 kts 307°
2026-05-06 22:11 45.89012 21.17355 35938 ft 474 kts 307°
2026-05-06 22:11 45.93293 21.10124 35936 ft 474 kts 307°
2026-05-06 22:12 45.97542 21.02929 35938 ft 474 kts 307°
2026-05-06 22:12 46.01807 20.95686 35936 ft 472 kts 307°
2026-05-06 22:13 46.06050 20.88464 35932 ft 472 kts 307°
2026-05-06 22:13 46.10289 20.81231 35935 ft 474 kts 307°
2026-05-06 22:14 46.14521 20.73986 35926 ft 475 kts 307°
2026-05-06 22:14 46.18699 20.66610 35928 ft 472 kts 304°
2026-05-06 22:15 46.22466 20.58865 35930 ft 471 kts 301°
2026-05-06 22:15 46.26169 20.51044 35928 ft 471 kts 302°
2026-05-06 22:16 46.29896 20.43325 35925 ft 471 kts 302°
2026-05-06 22:16 46.33674 20.35587 35925 ft 469 kts 302°
2026-05-06 22:17 46.37442 20.27874 35924 ft 468 kts 302°
2026-05-06 22:17 46.41196 20.20164 35924 ft 468 kts 302°
2026-05-06 22:18 46.44928 20.12469 35927 ft 471 kts 302°
2026-05-06 22:18 46.48694 20.04682 35926 ft 471 kts 302°
2026-05-06 22:19 46.52461 19.96874 35934 ft 471 kts 302°
2026-05-06 22:19 46.56224 19.89050 35942 ft 471 kts 302°
2026-05-06 22:20 46.59957 19.81267 35941 ft 471 kts 302°
2026-05-06 22:20 46.63703 19.73436 35944 ft 469 kts 302°
2026-05-06 22:21 46.67428 19.65628 35949 ft 468 kts 302°
2026-05-06 22:21 46.71109 19.57889 35949 ft 467 kts 302°
2026-05-06 22:22 46.74812 19.50080 35944 ft 467 kts 302°
2026-05-06 22:22 46.78511 19.42259 35945 ft 469 kts 302°
2026-05-06 22:23 46.82216 19.34404 35947 ft 469 kts 302°
2026-05-06 22:23 46.85889 19.26594 35941 ft 469 kts 301°
2026-05-06 22:24 46.89584 19.18716 35939 ft 469 kts 301°
2026-05-06 22:24 46.93275 19.10825 35937 ft 468 kts 301°
2026-05-06 22:25 46.96931 19.02984 35936 ft 468 kts 301°
2026-05-06 22:25 47.00597 18.95102 35934 ft 467 kts 301°
2026-05-06 22:26 47.04247 18.87229 35925 ft 467 kts 301°
2026-05-06 22:26 47.07875 18.79382 35938 ft 467 kts 301°
2026-05-06 22:27 47.11512 18.71493 35921 ft 467 kts 301°
2026-05-06 22:27 47.15154 18.63569 35925 ft 468 kts 301°
2026-05-06 22:28 47.18794 18.55630 35919 ft 468 kts 301°
2026-05-06 22:28 47.22428 18.47682 35940 ft 468 kts 300°
2026-05-06 22:29 47.26034 18.39771 35914 ft 467 kts 300°
2026-05-06 22:29 47.29653 18.31808 35910 ft 467 kts 300°
2026-05-06 22:30 47.33266 18.23836 35912 ft 467 kts 300°
2026-05-06 22:30 47.36854 18.15896 35911 ft 467 kts 300°
2026-05-06 22:31 47.40454 18.07906 35892 ft 467 kts 299°
2026-05-06 22:31 47.44052 17.99896 35893 ft 467 kts 299°
2026-05-06 22:32 47.47624 17.91923 35886 ft 467 kts 299°
2026-05-06 22:32 47.51205 17.83905 35881 ft 467 kts 299°
2026-05-06 22:33 47.54785 17.75866 35887 ft 468 kts 298°
2026-05-06 22:33 47.58353 17.67827 35883 ft 469 kts 298°
2026-05-06 22:34 47.61936 17.59736 35879 ft 469 kts 298°
2026-05-06 22:34 47.64912 17.52999 35873 ft 469 kts 298°
2026-05-06 22:35 47.68491 17.44871 35881 ft 470 kts 298°
2026-05-06 22:35 47.72060 17.36743 35854 ft 469 kts 298°
2026-05-06 22:36 47.75622 17.28601 35848 ft 469 kts 298°
2026-05-06 22:36 47.79153 17.20508 35839 ft 468 kts 298°
2026-05-06 22:37 47.82726 17.12408 35837 ft 469 kts 301°
2026-05-06 22:37 47.86799 17.04726 35832 ft 473 kts 304°
2026-05-06 22:38 47.90976 16.97137 35828 ft 474 kts 304°
2026-05-06 22:38 47.95175 16.89542 35829 ft 474 kts 304°
2026-05-06 22:39 47.99335 16.81984 35826 ft 474 kts 304°
2026-05-06 22:39 48.03506 16.74368 35828 ft 473 kts 304°
2026-05-06 22:40 48.07673 16.66733 35830 ft 474 kts 304°
2026-05-06 22:40 48.11834 16.59087 35830 ft 474 kts 304°
2026-05-06 22:41 48.18052 16.47622 35827 ft 474 kts 304°
2026-05-06 22:42 48.22212 16.39925 35820 ft 474 kts 303°
2026-05-06 22:42 48.26361 16.32228 35817 ft 474 kts 303°
2026-05-06 22:43 48.30507 16.24516 35811 ft 474 kts 303°
2026-05-06 22:43 48.34622 16.16834 35813 ft 474 kts 303°
2026-05-06 22:44 48.38754 16.09099 35831 ft 474 kts 303°
2026-05-06 22:44 48.42882 16.01349 35807 ft 475 kts 303°
2026-05-06 22:45 48.46989 15.93617 35803 ft 475 kts 303°
2026-05-06 22:45 48.51121 15.85816 35808 ft 475 kts 303°
2026-05-06 22:46 48.55243 15.78013 35800 ft 475 kts 302°
2026-05-06 22:46 48.59360 15.70195 35801 ft 475 kts 302°
2026-05-06 22:47 48.63439 15.62427 35803 ft 474 kts 302°
2026-05-06 22:47 48.67542 15.54590 35802 ft 475 kts 302°
2026-05-06 22:48 48.71638 15.46742 35807 ft 474 kts 302°
2026-05-06 22:48 48.75711 15.38918 35805 ft 474 kts 302°
2026-05-06 22:49 48.79800 15.31037 35804 ft 475 kts 302°
2026-05-06 22:49 48.83884 15.23145 35804 ft 475 kts 302°
2026-05-06 22:50 48.87959 15.15247 35804 ft 475 kts 302°
2026-05-06 22:50 48.92045 15.07418 35807 ft 476 kts 303°
2026-05-06 22:51 48.96359 14.99698 35817 ft 480 kts 304°
2026-05-06 22:51 49.00721 14.91969 35811 ft 481 kts 304°
2026-05-06 22:52 49.05059 14.84188 35812 ft 480 kts 303°
2026-05-06 22:52 49.09360 14.76396 35821 ft 480 kts 303°
2026-05-06 22:53 49.13637 14.68613 35824 ft 482 kts 303°
2026-05-06 22:53 49.17957 14.60725 35824 ft 484 kts 303°
2026-05-06 22:54 49.22279 14.52817 35826 ft 484 kts 303°
2026-05-06 22:54 49.26580 14.44929 35826 ft 484 kts 303°
2026-05-06 22:55 49.30889 14.36999 35835 ft 484 kts 303°
2026-05-06 22:55 49.35198 14.29044 35833 ft 486 kts 304°
2026-05-06 22:56 49.39525 14.21031 35838 ft 487 kts 303°
2026-05-06 22:56 49.43813 14.13067 35839 ft 487 kts 303°
2026-05-06 22:57 49.48135 14.05017 35828 ft 487 kts 303°
2026-05-06 22:57 49.52452 13.96949 35825 ft 487 kts 304°
2026-05-06 22:58 49.56736 13.88920 35835 ft 488 kts 304°
2026-05-06 22:58 49.61045 13.80819 35831 ft 488 kts 304°
2026-05-06 22:59 49.65350 13.72703 35835 ft 488 kts 304°
2026-05-06 22:59 49.69620 13.64624 35840 ft 488 kts 303°
2026-05-06 23:00 49.73916 13.56471 35842 ft 489 kts 303°
2026-05-06 23:00 49.78218 13.48281 35847 ft 490 kts 303°
2026-05-06 23:01 49.82484 13.40135 35849 ft 490 kts 303°
2026-05-06 23:01 49.86774 13.31918 35843 ft 490 kts 303°
2026-05-06 23:02 49.91060 13.23685 35838 ft 489 kts 303°
2026-05-06 23:02 49.95327 13.15462 35821 ft 488 kts 303°
2026-05-06 23:03 49.99562 13.07273 35824 ft 488 kts 303°
2026-05-06 23:03 50.03817 12.99020 35827 ft 488 kts 303°
2026-05-06 23:04 50.08058 12.90768 35829 ft 488 kts 303°
2026-05-06 23:04 50.12302 12.82484 35828 ft 489 kts 303°
2026-05-06 23:05 50.16523 12.74165 35928 ft 487 kts 301°
2026-05-06 23:05 50.18322 12.69801 36149 ft 481 kts 294°
2026-05-06 23:05 50.19952 12.65276 36459 ft 477 kts 294°
2026-05-06 23:05 50.21534 12.60721 36675 ft 476 kts 293°
2026-05-06 23:06 50.23086 12.56153 36840 ft 475 kts 293°
2026-05-06 23:06 50.24622 12.51580 37018 ft 475 kts 293°
2026-05-06 23:06 50.26160 12.46984 37162 ft 476 kts 293°
2026-05-06 23:07 50.29238 12.37781 37387 ft 478 kts 293°
2026-05-06 23:07 50.30585 12.33061 37512 ft 472 kts 284°
2026-05-06 23:07 50.31349 12.28183 37642 ft 466 kts 274°
2026-05-06 23:07 50.31589 12.23156 37753 ft 461 kts 265°
2026-05-06 23:08 50.31327 12.18179 37824 ft 458 kts 257°
2026-05-06 23:08 50.29371 12.08737 37832 ft 456 kts 240°
2026-05-06 23:09 50.26000 12.00353 37824 ft 455 kts 234°
2026-05-06 23:09 50.22594 11.92041 37834 ft 458 kts 237°
2026-05-06 23:10 50.19895 11.83020 37826 ft 461 kts 251°
2026-05-06 23:10 50.18929 11.73068 37833 ft 467 kts 266°
2026-05-06 23:11 50.18983 11.62961 37841 ft 469 kts 268°
2026-05-06 23:11 50.19168 11.52755 37850 ft 469 kts 268°
2026-05-06 23:12 50.19328 11.42560 37842 ft 470 kts 268°
2026-05-06 23:12 50.19450 11.32344 37844 ft 470 kts 268°
2026-05-06 23:13 50.19551 11.22180 37845 ft 470 kts 268°
2026-05-06 23:13 50.19644 11.11967 37846 ft 470 kts 268°
2026-05-06 23:14 50.19728 11.01740 37847 ft 471 kts 268°
2026-05-06 23:14 50.19802 10.91536 37845 ft 473 kts 267°
2026-05-06 23:15 50.19759 10.81279 37845 ft 472 kts 266°
2026-05-06 23:15 50.19655 10.71011 37847 ft 472 kts 266°
2026-05-06 23:16 50.19557 10.60806 37852 ft 472 kts 266°
2026-05-06 23:16 50.19463 10.50533 37850 ft 475 kts 266°
2026-05-06 23:17 50.19364 10.40193 37850 ft 476 kts 266°
2026-05-06 23:17 50.19256 10.29860 37850 ft 476 kts 266°
2026-05-06 23:18 50.19137 10.19536 37854 ft 476 kts 266°
2026-05-06 23:18 50.19007 10.09198 37858 ft 476 kts 266°
2026-05-06 23:19 50.18875 9.98892 37857 ft 478 kts 266°
2026-05-06 23:19 50.18786 9.88515 37855 ft 478 kts 266°
2026-05-06 23:20 50.18700 9.78133 37861 ft 478 kts 266°
2026-05-06 23:20 50.18601 9.67745 37864 ft 478 kts 266°
2026-05-06 23:21 50.18485 9.57426 37867 ft 479 kts 266°
2026-05-06 23:21 50.18359 9.47005 37869 ft 479 kts 266°
2026-05-06 23:22 50.18225 9.36582 37877 ft 479 kts 266°
2026-05-06 23:22 50.18863 9.26266 37875 ft 484 kts 281°
2026-05-06 23:23 50.20846 9.16183 37880 ft 487 kts 286°
2026-05-06 23:23 50.23127 9.06210 37878 ft 489 kts 291°
2026-05-06 23:24 50.25976 8.98561 37881 ft 493 kts 306°
2026-05-06 23:24 50.31985 8.90279 37881 ft 501 kts 328°
2026-05-06 23:25 50.37390 8.86913 37884 ft 505 kts 345°
2026-05-06 23:25 50.40875 8.86109 37881 ft 508 kts 356°
2026-05-06 23:25 50.44405 8.85730 37889 ft 507 kts 350°
2026-05-06 23:26 50.51430 8.84392 37877 ft 508 kts 351°
2026-05-06 23:26 50.58395 8.82926 37883 ft 507 kts 346°
2026-05-06 23:27 50.64984 8.79171 37884 ft 501 kts 328°
2026-05-06 23:27 50.70588 8.72715 37885 ft 498 kts 318°
2026-05-06 23:28 50.75847 8.65693 37882 ft 498 kts 316°
2026-05-06 23:28 50.81100 8.58535 37889 ft 498 kts 317°
2026-05-06 23:29 50.86366 8.51390 37888 ft 498 kts 317°
2026-05-06 23:29 50.91644 8.44248 37881 ft 498 kts 317°
2026-05-06 23:30 50.96879 8.37155 37903 ft 498 kts 317°
2026-05-06 23:30 51.02314 8.30307 37896 ft 501 kts 326°
2026-05-06 23:31 51.08323 8.24665 37897 ft 501 kts 328°
2026-05-06 23:31 51.14367 8.19279 37897 ft 501 kts 329°
2026-05-06 23:32 51.20464 8.13877 37914 ft 501 kts 328°
2026-05-06 23:32 51.26552 8.08442 37926 ft 500 kts 328°
2026-05-06 23:33 51.32568 8.03041 37918 ft 499 kts 328°
2026-05-06 23:33 51.38625 7.97581 37928 ft 499 kts 328°
2026-05-06 23:34 51.44683 7.92117 37932 ft 499 kts 328°
2026-05-06 23:34 51.51061 7.87633 37935 ft 502 kts 340°
2026-05-06 23:35 51.57696 7.84289 37938 ft 502 kts 341°
2026-05-06 23:35 51.64412 7.81085 37939 ft 502 kts 341°
2026-05-06 23:36 51.71111 7.77891 37935 ft 502 kts 341°
2026-05-06 23:36 51.77741 7.74604 37936 ft 500 kts 337°
2026-05-06 23:37 51.83789 7.69246 37931 ft 492 kts 319°
2026-05-06 23:37 51.88373 7.61180 37941 ft 485 kts 300°
2026-05-06 23:38 51.91535 7.51544 37938 ft 484 kts 294°
2026-05-06 23:38 51.94397 7.41742 37944 ft 484 kts 293°
2026-05-06 23:39 51.97260 7.31824 37948 ft 484 kts 293°
2026-05-06 23:39 52.00134 7.21945 37940 ft 483 kts 293°
2026-05-06 23:40 52.02993 7.12142 37937 ft 483 kts 293°
2026-05-06 23:40 52.05865 7.02264 37944 ft 483 kts 293°
2026-05-06 23:41 52.08727 6.92376 37951 ft 483 kts 293°
2026-05-06 23:41 52.11534 6.82516 37948 ft 481 kts 293°
2026-05-06 23:42 52.14122 6.72484 37943 ft 480 kts 289°
2026-05-06 23:42 52.16460 6.62286 37956 ft 480 kts 288°
2026-05-06 23:43 52.18741 6.52049 37957 ft 480 kts 288°
2026-05-06 23:43 52.20992 6.41808 37956 ft 480 kts 288°
2026-05-06 23:44 52.23222 6.31602 37965 ft 480 kts 288°
2026-05-06 23:44 52.25460 6.21338 37970 ft 480 kts 288°
2026-05-06 23:45 52.27688 6.11064 37967 ft 480 kts 288°
2026-05-06 23:45 52.29896 6.00822 37972 ft 480 kts 288°
2026-05-06 23:46 52.32104 5.90536 37983 ft 480 kts 288°
2026-05-06 23:46 52.34305 5.80228 37983 ft 480 kts 288°
2026-05-06 23:47 52.36499 5.69906 37976 ft 480 kts 288°
2026-05-06 23:47 52.38683 5.59575 37985 ft 480 kts 288°
2026-05-06 23:48 52.40847 5.49295 37991 ft 479 kts 287°
2026-05-06 23:48 52.43007 5.38966 37995 ft 479 kts 287°
2026-05-06 23:49 52.45158 5.28626 37991 ft 478 kts 287°
2026-05-06 23:49 52.47287 5.18343 37995 ft 478 kts 287°
2026-05-06 23:50 52.49421 5.07985 37997 ft 478 kts 287°
2026-05-06 23:50 52.52602 4.92444 37998 ft 478 kts 287°
2026-05-06 23:51 52.55371 4.82534 38000 ft 479 kts 301°
2026-05-06 23:51 52.59046 4.73441 37997 ft 480 kts 303°
2026-05-06 23:52 52.62878 4.64419 37998 ft 481 kts 303°
2026-05-06 23:52 52.66719 4.55386 38001 ft 481 kts 303°
2026-05-06 23:53 52.70533 4.46336 38005 ft 480 kts 303°
2026-05-06 23:53 52.74310 4.37258 38012 ft 479 kts 301°
2026-05-06 23:54 52.77644 4.27836 38014 ft 478 kts 298°
2026-05-06 23:54 52.80905 4.18241 38021 ft 478 kts 297°
2026-05-06 23:55 52.84142 4.08619 38022 ft 478 kts 297°
2026-05-06 23:55 52.87351 3.99061 38030 ft 477 kts 297°
2026-05-06 23:56 52.90570 3.89454 38034 ft 476 kts 297°
2026-05-06 23:56 52.93781 3.79837 38037 ft 476 kts 297°
2026-05-06 23:57 52.96986 3.70197 38038 ft 476 kts 297°
2026-05-06 23:57 53.00156 3.60637 38042 ft 476 kts 297°
2026-05-06 23:58 53.03341 3.50993 38045 ft 476 kts 297°
2026-05-06 23:58 53.06516 3.41327 38045 ft 476 kts 297°
2026-05-06 23:59 53.09385 3.31495 38045 ft 474 kts 288°
2026-05-06 23:59 53.10787 3.20811 38046 ft 472 kts 277°
2026-05-07 00:00 53.11600 3.09929 38052 ft 473 kts 276°
2026-05-07 00:00 53.12193 3.00873 38054 ft 473 kts 276°
2026-05-07 00:01 53.13024 2.88202 38051 ft 474 kts 276°
2026-05-07 00:01 53.13751 2.77281 38048 ft 474 kts 276°
2026-05-07 00:02 53.14475 2.66347 38051 ft 474 kts 276°
2026-05-07 00:02 53.15184 2.55492 38056 ft 474 kts 276°
2026-05-07 00:03 53.15888 2.44544 38057 ft 474 kts 276°
2026-05-07 00:03 53.16583 2.33578 38056 ft 475 kts 276°
2026-05-07 00:04 53.17262 2.22699 38061 ft 475 kts 276°
2026-05-07 00:04 53.17934 2.11754 38062 ft 475 kts 276°
2026-05-07 00:05 53.18598 2.00795 38064 ft 475 kts 276°
2026-05-07 00:05 53.19251 1.89827 38064 ft 475 kts 275°
2026-05-07 00:06 53.19891 1.78916 38071 ft 475 kts 275°
2026-05-07 00:06 53.20525 1.67942 38071 ft 475 kts 275°
2026-05-07 00:07 53.21149 1.56958 38066 ft 475 kts 275°
2026-05-07 00:07 53.21758 1.46043 38065 ft 475 kts 275°
2026-05-07 00:08 53.22363 1.35034 38070 ft 475 kts 275°
2026-05-07 00:08 53.22956 1.24040 38070 ft 475 kts 275°
2026-05-07 00:09 53.23536 1.13121 38073 ft 475 kts 275°
2026-05-07 00:09 53.24109 1.02120 38072 ft 475 kts 275°
2026-05-07 00:10 53.24673 0.91112 38074 ft 476 kts 275°
2026-05-07 00:10 53.25226 0.80094 38073 ft 476 kts 275°
2026-05-07 00:11 53.25766 0.69147 38072 ft 476 kts 275°
2026-05-07 00:11 53.26300 0.58120 38081 ft 476 kts 275°
2026-05-07 00:12 53.26823 0.47083 38071 ft 476 kts 275°
2026-05-07 00:12 53.27333 0.36123 38079 ft 475 kts 275°
2026-05-07 00:13 53.27836 0.25107 38078 ft 475 kts 275°
2026-05-07 00:13 53.28329 0.14074 38079 ft 475 kts 275°
2026-05-07 00:14 53.29292 0.03153 38081 ft 474 kts 287°
2026-05-07 00:14 53.31747 -0.06988 38073 ft 474 kts 295°
2026-05-07 00:15 53.34620 -0.16910 38076 ft 474 kts 296°
2026-05-07 00:15 53.37548 -0.26826 38076 ft 474 kts 296°
2026-05-07 00:16 53.39959 -0.35074 38078 ft 474 kts 296°
2026-05-07 00:16 53.42828 -0.44978 38079 ft 474 kts 296°
2026-05-07 00:17 53.45694 -0.54936 38079 ft 474 kts 296°
2026-05-07 00:17 53.48559 -0.64924 38081 ft 474 kts 296°
2026-05-07 00:18 53.51402 -0.74935 38079 ft 474 kts 296°
2026-05-07 00:18 53.54221 -0.84887 38081 ft 474 kts 296°
2026-05-07 00:19 53.57050 -0.94915 38083 ft 474 kts 295°
2026-05-07 00:19 53.59409 -1.05273 38083 ft 474 kts 284°
2026-05-07 00:20 53.59952 -1.16242 38083 ft 476 kts 266°
2026-05-07 00:20 53.59068 -1.27330 38090 ft 478 kts 262°
2026-05-07 00:21 53.57951 -1.38365 38083 ft 478 kts 261°
2026-05-07 00:21 53.56805 -1.49390 38085 ft 478 kts 261°
2026-05-07 00:22 53.55681 -1.60423 38085 ft 478 kts 262°
2026-05-07 00:22 53.54568 -1.71395 38085 ft 479 kts 262°
2026-05-07 00:23 53.53435 -1.82448 38088 ft 479 kts 262°
2026-05-07 00:23 53.53027 -1.93568 38086 ft 476 kts 274°
2026-05-07 00:24 53.53513 -2.04667 38082 ft 476 kts 276°
2026-05-07 00:24 53.54177 -2.15745 38077 ft 476 kts 277°
2026-05-07 00:25 53.54826 -2.26792 38075 ft 476 kts 276°
2026-05-07 00:25 53.55438 -2.37897 38070 ft 476 kts 276°
2026-05-07 00:26 53.56022 -2.48923 38067 ft 477 kts 276°
2026-05-07 00:26 53.56599 -2.60039 38067 ft 477 kts 276°
2026-05-07 00:27 53.57167 -2.71154 38063 ft 477 kts 276°
2026-05-07 00:27 53.57710 -2.81873 38062 ft 477 kts 276°
2026-05-07 00:28 53.58261 -2.93009 38054 ft 477 kts 276°
2026-05-07 00:28 53.58799 -3.04140 38052 ft 477 kts 276°
2026-05-07 00:29 53.59322 -3.15207 38046 ft 477 kts 276°
2026-05-07 00:30 53.60345 -3.37505 38039 ft 477 kts 276°
2026-05-07 00:30 53.60836 -3.48590 38038 ft 476 kts 275°
2026-05-07 00:31 53.61322 -3.59744 38030 ft 477 kts 276°
2026-05-07 00:31 53.61799 -3.70904 38029 ft 479 kts 275°
2026-05-07 00:32 53.62267 -3.82124 38023 ft 480 kts 275°
2026-05-07 00:32 53.62719 -3.93272 38023 ft 480 kts 275°
2026-05-07 00:33 53.63171 -4.04507 38021 ft 480 kts 275°
2026-05-07 00:33 53.63609 -4.15748 38017 ft 480 kts 275°
2026-05-07 00:34 53.64033 -4.26995 38018 ft 480 kts 275°
2026-05-07 00:34 53.64449 -4.38180 38015 ft 480 kts 275°
2026-05-07 00:35 53.64857 -4.49424 38015 ft 480 kts 275°
2026-05-07 00:35 53.65251 -4.60687 38019 ft 480 kts 275°
2026-05-07 00:36 53.65630 -4.71918 38012 ft 478 kts 275°
2026-05-07 00:36 53.65997 -4.83030 38008 ft 476 kts 275°
2026-05-07 00:37 53.66365 -4.94187 38010 ft 476 kts 275°
2026-05-07 00:37 53.66720 -5.05351 38003 ft 476 kts 275°
2026-05-07 00:38 53.67062 -5.16443 38004 ft 476 kts 275°
2026-05-07 00:38 53.67394 -5.27606 38004 ft 476 kts 274°
2026-05-07 00:39 53.67704 -5.38757 38004 ft 475 kts 274°
2026-05-07 00:39 53.68005 -5.49901 38004 ft 475 kts 274°
2026-05-07 00:40 53.68591 -5.60936 38004 ft 474 kts 279°
2026-05-07 00:40 53.69503 -5.71973 38000 ft 474 kts 279°
2026-05-07 00:41 53.70381 -5.83020 37999 ft 475 kts 278°
2026-05-07 00:41 53.71186 -5.94103 37994 ft 475 kts 278°
2026-05-07 00:42 53.71954 -6.05180 37987 ft 475 kts 278°
2026-05-07 00:42 53.72709 -6.16258 37986 ft 475 kts 278°
2026-05-07 00:43 53.73451 -6.27272 37979 ft 475 kts 277°
2026-05-07 00:43 53.74192 -6.38379 37981 ft 475 kts 277°
2026-05-07 00:44 53.74922 -6.49494 37978 ft 475 kts 277°
2026-05-07 00:44 53.75638 -6.60539 37977 ft 475 kts 277°
2026-05-07 00:45 53.76347 -6.71650 37975 ft 475 kts 277°
2026-05-07 00:45 53.77047 -6.82783 37973 ft 476 kts 277°
2026-05-07 00:46 53.77738 -6.93933 37970 ft 476 kts 277°
2026-05-07 00:46 53.78412 -7.04994 37970 ft 476 kts 277°
2026-05-07 00:47 53.79081 -7.16138 37971 ft 474 kts 277°
2026-05-07 00:47 53.79737 -7.27234 37969 ft 473 kts 277°
2026-05-07 00:48 53.80381 -7.38311 37965 ft 472 kts 276°
2026-05-07 00:48 53.81011 -7.49320 37967 ft 472 kts 276°
2026-05-07 00:49 53.81635 -7.60404 37961 ft 472 kts 276°
2026-05-07 00:49 53.82248 -7.71481 37962 ft 472 kts 276°
2026-05-07 00:50 53.82851 -7.82564 37960 ft 472 kts 276°
2026-05-07 00:50 53.83444 -7.93642 37958 ft 474 kts 275°
2026-05-07 00:51 53.84029 -8.04777 37960 ft 475 kts 275°
2026-05-07 00:51 53.84605 -8.15939 37962 ft 475 kts 275°
2026-05-07 00:52 53.85166 -8.27016 37963 ft 475 kts 275°
2026-05-07 00:52 53.85721 -8.38178 37961 ft 475 kts 275°
2026-05-07 00:53 53.86266 -8.49345 37962 ft 475 kts 275°
2026-05-07 00:53 53.86800 -8.60518 37965 ft 475 kts 275°
2026-05-07 00:54 53.87321 -8.71619 37968 ft 475 kts 275°
2026-05-07 00:54 53.87834 -8.82793 37964 ft 475 kts 275°
2026-05-07 00:55 53.88337 -8.93970 37964 ft 475 kts 274°
2026-05-07 00:55 53.88831 -9.05159 37968 ft 475 kts 274°
2026-05-07 00:56 53.89309 -9.16250 37968 ft 475 kts 274°
2026-05-07 00:56 53.89781 -9.27421 37965 ft 473 kts 274°
2026-05-07 00:57 53.90241 -9.38571 37967 ft 473 kts 274°
2026-05-07 00:57 53.90687 -9.49625 37970 ft 472 kts 273°
2026-05-07 00:58 53.91126 -9.60755 37961 ft 472 kts 273°
2026-05-07 00:58 53.91553 -9.71858 37963 ft 472 kts 273°
2026-05-07 00:59 53.92173 -9.88474 37963 ft 472 kts 273°
2026-05-07 01:00 53.92575 -9.99605 37957 ft 472 kts 273°
2026-05-07 01:00 53.92967 -10.10716 37954 ft 471 kts 273°
2026-05-07 01:01 53.93346 -10.21776 37952 ft 471 kts 272°
2026-05-07 01:01 53.93717 -10.32892 37948 ft 471 kts 272°
2026-05-07 01:02 53.94075 -10.43928 37945 ft 471 kts 272°
2026-05-07 01:02 53.94425 -10.55029 37948 ft 471 kts 272°
2026-05-07 01:03 53.94766 -10.66141 37948 ft 470 kts 272°
2026-05-07 01:03 53.95095 -10.77250 37945 ft 470 kts 272°
2026-05-07 01:04 53.95412 -10.88275 37945 ft 470 kts 272°
2026-05-07 01:04 53.95721 -10.99370 37936 ft 470 kts 272°
2026-05-07 01:05 53.96019 -11.10466 37940 ft 470 kts 272°
2026-05-07 01:05 53.96305 -11.21494 37936 ft 470 kts 271°
2026-05-07 01:06 53.96539 -11.30799 37932 ft 470 kts 271°
2026-05-07 01:06 53.96807 -11.41810 37938 ft 468 kts 271°
2026-05-07 01:07 53.97106 -11.54671 37936 ft 468 kts 271°
2026-05-07 01:07 53.97312 -11.63869 37936 ft 468 kts 271°
2026-05-07 01:08 53.97550 -11.74915 37930 ft 467 kts 271°
2026-05-07 01:08 53.97777 -11.85953 37924 ft 467 kts 271°
2026-05-07 01:09 53.97995 -11.96998 37930 ft 467 kts 271°
2026-05-07 01:09 53.98200 -12.07962 37925 ft 467 kts 271°
2026-05-07 01:10 53.98398 -12.19007 37928 ft 467 kts 270°
2026-05-07 01:10 53.98585 -12.30068 37923 ft 467 kts 270°
2026-05-07 01:11 53.98762 -12.41099 37921 ft 467 kts 270°
2026-05-07 01:11 53.98929 -12.52141 37917 ft 467 kts 270°
2026-05-07 01:12 53.99084 -12.63120 37915 ft 467 kts 270°
2026-05-07 01:12 53.99231 -12.74167 37910 ft 467 kts 270°
2026-05-07 01:13 53.99368 -12.85203 37915 ft 467 kts 270°
2026-05-07 01:13 53.99493 -12.96174 37910 ft 467 kts 270°
2026-05-07 01:14 53.99609 -13.07223 37918 ft 467 kts 270°
2026-05-07 01:14 53.99715 -13.18265 37914 ft 467 kts 270°
2026-05-07 01:15 53.99811 -13.29245 37912 ft 466 kts 269°
2026-05-07 01:15 53.99897 -13.40262 37908 ft 466 kts 269°
2026-05-07 01:16 53.99973 -13.51264 37903 ft 465 kts 269°
2026-05-07 01:16 54.00038 -13.62268 37903 ft 465 kts 269°
2026-05-07 01:17 54.00094 -13.73285 37905 ft 465 kts 269°
2026-05-07 01:17 54.00139 -13.84227 37908 ft 465 kts 269°
2026-05-07 01:18 54.00174 -13.95225 37905 ft 465 kts 268°
2026-05-07 01:18 54.00200 -14.06243 37906 ft 465 kts 268°
2026-05-07 01:19 54.00215 -14.17247 37905 ft 465 kts 268°
2026-05-07 01:19 54.00220 -14.28261 37903 ft 465 kts 268°
2026-05-07 01:20 54.00216 -14.39208 37902 ft 466 kts 268°
2026-05-07 01:20 54.00201 -14.50235 37900 ft 466 kts 268°
2026-05-07 01:21 54.00176 -14.61261 37899 ft 466 kts 268°
2026-05-07 01:21 54.00141 -14.72285 37903 ft 466 kts 268°
2026-05-07 01:22 54.00096 -14.83238 37905 ft 466 kts 268°
2026-05-07 01:22 54.00041 -14.94267 37939 ft 466 kts 267°
2026-05-07 01:22 54.00010 -14.99794 38121 ft 466 kts 268°
2026-05-07 01:23 54.00013 -15.05296 38350 ft 465 kts 269°
2026-05-07 01:23 54.00105 -15.10785 38514 ft 465 kts 270°
2026-05-07 01:23 54.00238 -15.16225 38632 ft 465 kts 271°
2026-05-07 01:24 54.00513 -15.27229 38826 ft 466 kts 270°
2026-05-07 01:24 54.00743 -15.38266 38901 ft 469 kts 270°
2026-05-07 01:25 54.00937 -15.49365 38910 ft 469 kts 270°
2026-05-07 01:25 54.01113 -15.60397 38905 ft 470 kts 270°
2026-05-07 01:26 54.01281 -15.71504 38903 ft 470 kts 270°
2026-05-07 01:26 54.01440 -15.82626 38903 ft 470 kts 270°
2026-05-07 01:27 54.01589 -15.93733 38901 ft 470 kts 270°
2026-05-07 01:27 54.01728 -16.04854 38900 ft 470 kts 269°
2026-05-07 01:28 54.01856 -16.15909 38905 ft 470 kts 269°
2026-05-07 01:28 54.01975 -16.27036 38903 ft 470 kts 269°
2026-05-07 01:29 54.02083 -16.38149 38901 ft 470 kts 269°
2026-05-07 01:29 54.02181 -16.49269 38906 ft 470 kts 269°
2026-05-07 01:30 54.02269 -16.60337 38905 ft 470 kts 269°
2026-05-07 01:30 54.02346 -16.71465 38911 ft 470 kts 269°
2026-05-07 01:31 54.02413 -16.82528 38910 ft 470 kts 269°
2026-05-07 01:31 54.02470 -16.93663 38911 ft 470 kts 269°
2026-05-07 01:32 54.02517 -17.04791 38910 ft 470 kts 269°
2026-05-07 01:32 54.02553 -17.15848 38917 ft 470 kts 269°
2026-05-07 01:33 54.02580 -17.26969 38917 ft 470 kts 269°
2026-05-07 01:33 54.02596 -17.38118 38919 ft 470 kts 269°
2026-05-07 01:34 54.02602 -17.49197 38921 ft 470 kts 269°
2026-05-07 01:34 54.02597 -17.60347 38922 ft 470 kts 268°
2026-05-07 01:35 54.02582 -17.71481 38920 ft 471 kts 269°
2026-05-07 01:35 54.02557 -17.82620 38928 ft 471 kts 269°
2026-05-07 01:36 54.02522 -17.93695 38927 ft 471 kts 268°
2026-05-07 01:36 54.02477 -18.04847 38927 ft 471 kts 268°
2026-05-07 01:37 54.02421 -18.16005 38928 ft 471 kts 268°
2026-05-07 01:37 54.02355 -18.27064 38930 ft 471 kts 268°
2026-05-07 01:38 54.02278 -18.38213 38933 ft 471 kts 268°
2026-05-07 01:38 54.02192 -18.49363 38939 ft 471 kts 268°
2026-05-07 01:39 54.02095 -18.60520 38936 ft 471 kts 268°
2026-05-07 01:39 54.01987 -18.71658 38939 ft 471 kts 268°
2026-05-07 01:40 54.01870 -18.82762 38943 ft 472 kts 268°
2026-05-07 01:40 54.01741 -18.93935 38944 ft 472 kts 268°
2026-05-07 01:41 54.01603 -19.05095 38945 ft 471 kts 268°
2026-05-07 01:41 54.01455 -19.16191 38951 ft 472 kts 268°
2026-05-07 01:42 54.01296 -19.27351 38950 ft 471 kts 268°
2026-05-07 01:42 54.01127 -19.38501 38953 ft 472 kts 268°
2026-05-07 01:43 54.00948 -19.49590 38955 ft 472 kts 268°
2026-05-07 01:43 54.00758 -19.60763 38954 ft 472 kts 268°
2026-05-07 01:44 54.00557 -19.71928 38956 ft 472 kts 268°
2026-05-07 01:44 54.00347 -19.83077 38961 ft 472 kts 268°
2026-05-07 01:45 54.00125 -19.94239 38960 ft 473 kts 268°
2026-05-07 01:45 53.99851 -20.05352 38963 ft 473 kts 265°
2026-05-07 01:46 53.99199 -20.16492 38964 ft 473 kts 263°
2026-05-07 01:46 53.98455 -20.27606 38970 ft 473 kts 263°
2026-05-07 01:47 53.97754 -20.38683 38968 ft 473 kts 264°
2026-05-07 01:47 53.97076 -20.49826 38971 ft 474 kts 264°
2026-05-07 01:48 53.96398 -20.60963 38977 ft 474 kts 264°
2026-05-07 01:48 53.95708 -20.72103 38977 ft 474 kts 264°
2026-05-07 01:49 53.95010 -20.83171 38977 ft 474 kts 264°
2026-05-07 01:49 53.94297 -20.94297 38987 ft 474 kts 264°
2026-05-07 01:50 53.93571 -21.05445 38983 ft 474 kts 264°
2026-05-07 01:50 53.92836 -21.16587 38982 ft 474 kts 264°
2026-05-07 01:51 53.92092 -21.27706 38984 ft 474 kts 264°
2026-05-07 01:51 53.91342 -21.38756 38986 ft 474 kts 263°
2026-05-07 01:52 53.90576 -21.49888 38987 ft 474 kts 263°
2026-05-07 01:52 53.89798 -21.61041 38993 ft 475 kts 263°
2026-05-07 01:53 53.89015 -21.72113 38995 ft 475 kts 263°
2026-05-07 01:53 53.88217 -21.83243 38993 ft 475 kts 263°
2026-05-07 01:54 53.87414 -21.94308 38994 ft 475 kts 263°
2026-05-07 01:54 53.86596 -22.05432 38993 ft 475 kts 263°
2026-05-07 01:55 53.85903 -22.14744 38998 ft 475 kts 263°
2026-05-07 01:55 53.85072 -22.25774 38999 ft 475 kts 263°
2026-05-07 01:56 53.84228 -22.36838 39002 ft 475 kts 263°
2026-05-07 01:56 53.83370 -22.47947 39001 ft 475 kts 263°
2026-05-07 01:57 53.82501 -22.59064 39004 ft 476 kts 263°
2026-05-07 01:57 53.81622 -22.70174 39004 ft 476 kts 263°
2026-05-07 01:58 53.80736 -22.81233 39012 ft 476 kts 262°
2026-05-07 01:58 53.79836 -22.92347 39009 ft 476 kts 262°
2026-05-07 01:59 53.78924 -23.03459 39012 ft 476 kts 262°
2026-05-07 01:59 53.78002 -23.14569 39012 ft 477 kts 262°
2026-05-07 02:00 53.77075 -23.25619 39015 ft 477 kts 262°
2026-05-07 02:00 53.76132 -23.36731 39018 ft 477 kts 262°
2026-05-07 02:01 53.75178 -23.47837 39020 ft 477 kts 262°
2026-05-07 02:01 53.74222 -23.58856 39015 ft 477 kts 262°
2026-05-07 02:02 53.73248 -23.69955 39021 ft 478 kts 262°
2026-05-07 02:02 53.72263 -23.81054 39020 ft 477 kts 262°
2026-05-07 02:03 53.71268 -23.92154 39020 ft 478 kts 262°
2026-05-07 02:03 53.70263 -24.03233 39024 ft 478 kts 262°
2026-05-07 02:04 53.69254 -24.14246 39019 ft 478 kts 262°
2026-05-07 02:04 53.68223 -24.25378 39028 ft 478 kts 262°
2026-05-07 02:05 53.67193 -24.36387 39025 ft 478 kts 262°
2026-05-07 02:05 53.66145 -24.47475 39025 ft 478 kts 262°
2026-05-07 02:06 53.65088 -24.58553 39031 ft 479 kts 262°
2026-05-07 02:06 53.64017 -24.69645 39028 ft 479 kts 262°
2026-05-07 02:07 53.62943 -24.80669 39031 ft 479 kts 262°
2026-05-07 02:07 53.61302 -24.97304 39028 ft 479 kts 261°
2026-05-07 02:08 53.60196 -25.08377 39034 ft 480 kts 261°
2026-05-07 02:08 53.59081 -25.19438 39029 ft 479 kts 262°
2026-05-07 02:09 53.57949 -25.30544 39035 ft 480 kts 261°
2026-05-07 02:09 53.56818 -25.41550 39039 ft 481 kts 261°
2026-05-07 02:10 53.55665 -25.52664 39036 ft 481 kts 261°
2026-05-07 02:10 53.54501 -25.63773 39037 ft 482 kts 261°
2026-05-07 02:11 53.53333 -25.74818 39037 ft 483 kts 261°
2026-05-07 02:11 53.52146 -25.85939 39037 ft 483 kts 261°
2026-05-07 02:12 53.50946 -25.97073 39038 ft 483 kts 262°
2026-05-07 02:12 53.49743 -26.08147 39038 ft 484 kts 261°
2026-05-07 02:13 53.48524 -26.19260 39025 ft 483 kts 261°
2026-05-07 02:13 53.47291 -26.30396 39046 ft 485 kts 261°
2026-05-07 02:14 53.46055 -26.41469 39044 ft 485 kts 261°
2026-05-07 02:14 53.44800 -26.52602 39041 ft 485 kts 261°
2026-05-07 02:15 53.43537 -26.63716 39043 ft 485 kts 261°
2026-05-07 02:15 53.42263 -26.74819 39038 ft 485 kts 261°
2026-05-07 02:16 53.40983 -26.85892 39038 ft 487 kts 261°
2026-05-07 02:16 53.39682 -26.97041 39038 ft 487 kts 261°
2026-05-07 02:17 53.38370 -27.08191 39045 ft 487 kts 261°
2026-05-07 02:17 53.37048 -27.19334 39055 ft 487 kts 260°
2026-05-07 02:18 53.35723 -27.30403 39044 ft 487 kts 261°
2026-05-07 02:18 53.34382 -27.41518 39042 ft 487 kts 260°
2026-05-07 02:19 53.33027 -27.52652 39048 ft 487 kts 260°
2026-05-07 02:19 53.31663 -27.63767 39057 ft 487 kts 261°
2026-05-07 02:20 53.30289 -27.74874 39045 ft 487 kts 260°
2026-05-07 02:20 53.28906 -27.85971 39047 ft 488 kts 260°
2026-05-07 02:21 53.27516 -27.97031 39046 ft 489 kts 260°
2026-05-07 02:21 53.26106 -28.08156 39055 ft 489 kts 260°
2026-05-07 02:22 53.24687 -28.19264 39046 ft 489 kts 260°
2026-05-07 02:22 53.23265 -28.30307 39050 ft 490 kts 260°
2026-05-07 02:23 53.21821 -28.41437 39051 ft 490 kts 260°
2026-05-07 02:23 53.20365 -28.52571 39049 ft 490 kts 260°
2026-05-07 02:24 53.18899 -28.63694 39050 ft 490 kts 260°
2026-05-07 02:24 53.17431 -28.74746 39033 ft 490 kts 260°
2026-05-07 02:25 53.15943 -28.85856 39054 ft 491 kts 260°
2026-05-07 02:25 53.14444 -28.96979 39059 ft 491 kts 260°
2026-05-07 02:26 53.12934 -29.08086 39062 ft 491 kts 259°
2026-05-07 02:26 53.11425 -29.19109 39058 ft 491 kts 259°
2026-05-07 02:27 53.09896 -29.30191 39056 ft 492 kts 260°
2026-05-07 02:27 53.08351 -29.41313 39059 ft 492 kts 259°
2026-05-07 02:28 53.06798 -29.52406 39058 ft 493 kts 259°
2026-05-07 02:28 53.05243 -29.63433 39059 ft 493 kts 259°
2026-05-07 02:29 53.03665 -29.74537 39047 ft 493 kts 259°
2026-05-07 02:29 53.02079 -29.85625 39067 ft 493 kts 259°
2026-05-07 02:30 53.00480 -29.96723 39067 ft 494 kts 259°
2026-05-07 02:30 52.99005 -30.07796 39064 ft 492 kts 263°
2026-05-07 02:31 52.97894 -30.19005 39064 ft 492 kts 264°
2026-05-07 02:31 52.96801 -30.30220 39059 ft 493 kts 263°
2026-05-07 02:32 52.95638 -30.41431 39063 ft 493 kts 263°
2026-05-07 02:32 52.94437 -30.52587 39070 ft 494 kts 263°
2026-05-07 02:33 52.93211 -30.63808 39073 ft 494 kts 263°
2026-05-07 02:33 52.91978 -30.75004 39072 ft 493 kts 263°
2026-05-07 02:34 52.90743 -30.86137 39072 ft 494 kts 263°
2026-05-07 02:34 52.89491 -30.97333 39073 ft 494 kts 263°
2026-05-07 02:35 52.88227 -31.08536 39076 ft 494 kts 262°
2026-05-07 02:35 52.86959 -31.19666 39080 ft 494 kts 262°
2026-05-07 02:36 52.85673 -31.30854 39075 ft 494 kts 262°
2026-05-07 02:36 52.84375 -31.42062 39081 ft 495 kts 262°
2026-05-07 02:37 52.83067 -31.53240 39079 ft 494 kts 262°
2026-05-07 02:37 52.81759 -31.64336 39077 ft 494 kts 262°
2026-05-07 02:38 52.80432 -31.75489 39085 ft 494 kts 262°
2026-05-07 02:38 52.79096 -31.86636 39084 ft 494 kts 262°
2026-05-07 02:39 52.77748 -31.97782 39091 ft 494 kts 262°
2026-05-07 02:39 52.76396 -32.08862 39087 ft 495 kts 262°
2026-05-07 02:40 52.75025 -32.20017 39088 ft 495 kts 262°
2026-05-07 02:40 52.73645 -32.31140 39087 ft 495 kts 262°
2026-05-07 02:41 52.72255 -32.42262 39100 ft 495 kts 262°
2026-05-07 02:41 52.70860 -32.53332 39099 ft 495 kts 262°
2026-05-07 02:42 52.69447 -32.64459 39104 ft 495 kts 262°
2026-05-07 02:42 52.68031 -32.75518 39101 ft 495 kts 261°
2026-05-07 02:43 52.66597 -32.86628 39092 ft 495 kts 261°
2026-05-07 02:43 52.65163 -32.97650 39099 ft 495 kts 261°
2026-05-07 02:44 52.63709 -33.08740 39105 ft 494 kts 261°
2026-05-07 02:44 52.62250 -33.19782 39111 ft 494 kts 261°
2026-05-07 02:45 52.61017 -33.29052 39111 ft 494 kts 261°
2026-05-07 02:45 52.59549 -33.40010 39104 ft 494 kts 261°
2026-05-07 02:46 52.58059 -33.51046 39112 ft 493 kts 261°
2026-05-07 02:46 52.56559 -33.62073 39118 ft 493 kts 261°
2026-05-07 02:47 52.55059 -33.73017 39121 ft 493 kts 261°
2026-05-07 02:47 52.53538 -33.84035 39102 ft 493 kts 261°
2026-05-07 02:48 52.52010 -33.95019 39121 ft 492 kts 261°
2026-05-07 02:48 52.50482 -34.05929 39124 ft 492 kts 261°
2026-05-07 02:49 52.48937 -34.16877 39127 ft 492 kts 261°
2026-05-07 02:49 52.47381 -34.27823 39137 ft 492 kts 260°
2026-05-07 02:50 52.45826 -34.38685 39133 ft 492 kts 260°
2026-05-07 02:50 52.44251 -34.49607 39140 ft 491 kts 260°
2026-05-07 02:51 52.42670 -34.60499 39131 ft 491 kts 260°
2026-05-07 02:51 52.41081 -34.71359 39141 ft 490 kts 260°
2026-05-07 02:52 52.39483 -34.82213 39143 ft 489 kts 260°
2026-05-07 02:52 52.37887 -34.92970 39156 ft 488 kts 260°
2026-05-07 02:53 52.36275 -35.03768 39159 ft 488 kts 260°
2026-05-07 02:53 52.34653 -35.14563 39160 ft 488 kts 260°
2026-05-07 02:54 52.33023 -35.25338 39165 ft 488 kts 260°
2026-05-07 02:54 52.31394 -35.36029 39155 ft 487 kts 260°
2026-05-07 02:55 52.29745 -35.46775 39164 ft 486 kts 260°
2026-05-07 02:55 52.28091 -35.57493 39170 ft 486 kts 260°
2026-05-07 02:56 52.26425 -35.68212 39176 ft 486 kts 260°
2026-05-07 02:56 52.24763 -35.78842 39176 ft 486 kts 259°
2026-05-07 02:57 52.23080 -35.89521 39175 ft 485 kts 260°
2026-05-07 02:57 52.21390 -36.00181 39176 ft 483 kts 260°
2026-05-07 02:58 52.19709 -36.10729 39176 ft 483 kts 260°
2026-05-07 02:58 52.18010 -36.21311 39178 ft 481 kts 260°
2026-05-07 02:59 52.16308 -36.31846 39153 ft 481 kts 259°
2026-05-07 02:59 52.14599 -36.42363 39183 ft 478 kts 260°
2026-05-07 03:00 52.12887 -36.52830 39186 ft 478 kts 260°
2026-05-07 03:00 52.11180 -36.63206 39181 ft 478 kts 260°
2026-05-07 03:01 52.09451 -36.73654 39187 ft 478 kts 259°
2026-05-07 03:01 52.07711 -36.84097 39176 ft 478 kts 259°
2026-05-07 03:02 52.05964 -36.94518 39194 ft 477 kts 259°
2026-05-07 03:02 52.04221 -37.04856 39194 ft 477 kts 259°
2026-05-07 03:03 52.02457 -37.15261 39194 ft 477 kts 259°
2026-05-07 03:03 52.00686 -37.25643 39196 ft 477 kts 259°
2026-05-07 03:04 51.98905 -37.36020 39200 ft 477 kts 259°
2026-05-07 03:04 51.97128 -37.46315 39198 ft 477 kts 259°
2026-05-07 03:05 51.95329 -37.56673 39198 ft 477 kts 259°
2026-05-07 03:05 51.93520 -37.67031 39198 ft 477 kts 259°
2026-05-07 03:06 51.91705 -37.77355 39189 ft 475 kts 259°
2026-05-07 03:06 51.89886 -37.87646 39204 ft 475 kts 259°
2026-05-07 03:07 51.88069 -37.97872 39212 ft 475 kts 259°
2026-05-07 03:07 51.86235 -38.08137 39210 ft 475 kts 259°
2026-05-07 03:08 51.84399 -38.18355 39213 ft 475 kts 258°
2026-05-07 03:08 51.82543 -38.28620 39202 ft 475 kts 258°
2026-05-07 03:09 51.80673 -38.38913 39210 ft 477 kts 258°
2026-05-07 03:09 51.78792 -38.49202 39212 ft 478 kts 258°
2026-05-07 03:10 51.76898 -38.59501 39222 ft 478 kts 258°
2026-05-07 03:10 51.75009 -38.69717 39217 ft 478 kts 258°
2026-05-07 03:11 51.73096 -38.80012 39221 ft 479 kts 258°
2026-05-07 03:11 51.71170 -38.90317 39222 ft 480 kts 257°
2026-05-07 03:12 51.69232 -39.00623 39225 ft 480 kts 257°
2026-05-07 03:12 51.67299 -39.10854 39224 ft 480 kts 257°
2026-05-07 03:13 51.65345 -39.21134 39200 ft 479 kts 257°
2026-05-07 03:13 51.63383 -39.31403 39226 ft 479 kts 257°
2026-05-07 03:14 51.61415 -39.41647 39227 ft 479 kts 257°
2026-05-07 03:15 51.58457 -39.56947 39229 ft 479 kts 257°
2026-05-07 03:15 51.56467 -39.67168 39229 ft 479 kts 257°
2026-05-07 03:16 51.54465 -39.77392 39228 ft 479 kts 257°
2026-05-07 03:16 51.52468 -39.87545 39224 ft 479 kts 256°
2026-05-07 03:17 51.50470 -39.97758 39221 ft 478 kts 258°
2026-05-07 03:17 51.49145 -40.08153 39224 ft 474 kts 264°
2026-05-07 03:18 51.48035 -40.18582 39212 ft 473 kts 265°
2026-05-07 03:18 51.46957 -40.28968 39224 ft 471 kts 264°
2026-05-07 03:19 51.45875 -40.39246 39224 ft 470 kts 264°
2026-05-07 03:19 51.44768 -40.49589 39225 ft 470 kts 264°
2026-05-07 03:20 51.43648 -40.59929 39225 ft 470 kts 264°
2026-05-07 03:20 51.42519 -40.70263 39204 ft 470 kts 264°
2026-05-07 03:21 51.41393 -40.80475 39224 ft 466 kts 264°
2026-05-07 03:21 51.40259 -40.90680 39225 ft 465 kts 264°
2026-05-07 03:22 51.39117 -41.00880 39223 ft 465 kts 264°
2026-05-07 03:22 51.37974 -41.11009 39225 ft 465 kts 264°
2026-05-07 03:23 51.36815 -41.21190 39225 ft 465 kts 264°
2026-05-07 03:23 51.35651 -41.31337 39223 ft 462 kts 263°
2026-05-07 03:24 51.34482 -41.41432 39216 ft 461 kts 263°
2026-05-07 03:24 51.33307 -41.51511 39214 ft 460 kts 263°
2026-05-07 03:25 51.32131 -41.61519 39231 ft 460 kts 263°
2026-05-07 03:25 51.30939 -41.71580 39227 ft 461 kts 263°
2026-05-07 03:26 51.29736 -41.81662 39213 ft 461 kts 262°
2026-05-07 03:26 51.28532 -41.91681 39221 ft 462 kts 262°
2026-05-07 03:27 51.27308 -42.01771 39222 ft 462 kts 262°
2026-05-07 03:27 51.26077 -42.11849 39217 ft 462 kts 262°
2026-05-07 03:28 51.24844 -42.21872 39220 ft 462 kts 262°
2026-05-07 03:28 51.23596 -42.31940 39215 ft 462 kts 262°
2026-05-07 03:29 51.22340 -42.41997 39218 ft 463 kts 262°
2026-05-07 03:29 51.21071 -42.52093 39219 ft 464 kts 262°
2026-05-07 03:30 51.19790 -42.62190 39220 ft 464 kts 261°
2026-05-07 03:30 51.18510 -42.72215 39219 ft 464 kts 261°
2026-05-07 03:31 51.17213 -42.82302 39200 ft 464 kts 261°
2026-05-07 03:31 51.15903 -42.92416 39211 ft 467 kts 261°
2026-05-07 03:32 51.14579 -43.02567 39209 ft 467 kts 261°
2026-05-07 03:32 51.13253 -43.12649 39209 ft 467 kts 261°
2026-05-07 03:33 51.11913 -43.22774 39206 ft 467 kts 261°
2026-05-07 03:33 51.10563 -43.32901 39189 ft 467 kts 261°
2026-05-07 03:34 51.09436 -43.41312 39201 ft 468 kts 261°
2026-05-07 03:34 51.08068 -43.51440 39204 ft 468 kts 261°
2026-05-07 03:35 51.06697 -43.61523 39209 ft 468 kts 260°
2026-05-07 03:35 51.05311 -43.71642 39204 ft 468 kts 260°
2026-05-07 03:36 51.03920 -43.81733 39200 ft 468 kts 260°
2026-05-07 03:36 51.02520 -43.91817 39198 ft 466 kts 260°
2026-05-07 03:37 51.01124 -44.01806 39210 ft 466 kts 260°
2026-05-07 03:37 50.99712 -44.11848 39196 ft 466 kts 260°
2026-05-07 03:38 50.98290 -44.21889 39199 ft 466 kts 260°
2026-05-07 03:38 50.96870 -44.31849 39191 ft 466 kts 260°
2026-05-07 03:39 50.95432 -44.41864 39196 ft 464 kts 260°
2026-05-07 03:39 50.93990 -44.51850 39198 ft 464 kts 260°
2026-05-07 03:40 50.92540 -44.61825 39199 ft 464 kts 260°
2026-05-07 03:40 50.91080 -44.71804 39200 ft 464 kts 260°
2026-05-07 03:41 50.89621 -44.81707 39198 ft 464 kts 260°
2026-05-07 03:41 50.88148 -44.91648 39191 ft 463 kts 259°
2026-05-07 03:42 50.86666 -45.01583 39195 ft 463 kts 259°
2026-05-07 03:42 50.85183 -45.11461 39195 ft 462 kts 259°
2026-05-07 03:43 50.83687 -45.21370 39195 ft 462 kts 259°
2026-05-07 03:43 50.82182 -45.31270 39192 ft 463 kts 259°
2026-05-07 03:44 50.80678 -45.41108 39189 ft 463 kts 259°
2026-05-07 03:44 50.79156 -45.50998 39191 ft 462 kts 259°
2026-05-07 03:45 50.77626 -45.60877 39195 ft 462 kts 259°
2026-05-07 03:45 50.76098 -45.70691 39192 ft 462 kts 259°
2026-05-07 03:46 50.74551 -45.80565 39193 ft 462 kts 259°
2026-05-07 03:46 50.72995 -45.90432 39187 ft 462 kts 258°
2026-05-07 03:47 50.71434 -46.00278 39189 ft 462 kts 258°
2026-05-07 03:47 50.69864 -46.10114 39189 ft 462 kts 258°
2026-05-07 03:48 50.68293 -46.19904 39186 ft 462 kts 258°
2026-05-07 03:48 50.66704 -46.29745 39192 ft 463 kts 258°
2026-05-07 03:49 50.65107 -46.39584 39185 ft 463 kts 258°
2026-05-07 03:49 50.63510 -46.49359 39189 ft 463 kts 258°
2026-05-07 03:50 50.61896 -46.59186 39187 ft 463 kts 258°
2026-05-07 03:50 50.60270 -46.69024 39189 ft 463 kts 258°
2026-05-07 03:51 50.58639 -46.78838 39189 ft 463 kts 258°
2026-05-07 03:51 50.57008 -46.88597 39179 ft 463 kts 258°
2026-05-07 03:52 50.55358 -46.98412 39190 ft 464 kts 257°
2026-05-07 03:52 50.53700 -47.08215 39189 ft 464 kts 257°
2026-05-07 03:53 50.52043 -47.17962 39183 ft 464 kts 257°
2026-05-07 03:53 50.50374 -47.27719 39187 ft 461 kts 257°
2026-05-07 03:54 50.48701 -47.37449 39186 ft 461 kts 257°
2026-05-07 03:54 50.47021 -47.47166 39189 ft 461 kts 257°
2026-05-07 03:55 50.45343 -47.56823 39187 ft 461 kts 257°
2026-05-07 03:55 50.43649 -47.66511 39188 ft 461 kts 257°
2026-05-07 03:56 50.41945 -47.76207 39190 ft 461 kts 257°
2026-05-07 03:56 50.40230 -47.85912 39180 ft 461 kts 257°
2026-05-07 03:57 50.38510 -47.95590 39187 ft 460 kts 257°
2026-05-07 03:57 50.36783 -48.05262 39187 ft 460 kts 257°
2026-05-07 03:58 50.35059 -48.14855 39192 ft 458 kts 257°
2026-05-07 03:58 50.33326 -48.24448 39191 ft 455 kts 257°
2026-05-07 03:59 50.31605 -48.33935 39189 ft 455 kts 257°
2026-05-07 03:59 50.29870 -48.43448 39190 ft 455 kts 257°
2026-05-07 04:00 50.28125 -48.52963 39193 ft 455 kts 257°
2026-05-07 04:00 50.26374 -48.62466 39197 ft 455 kts 257°
2026-05-07 04:01 50.24625 -48.71903 39189 ft 455 kts 257°
2026-05-07 04:01 50.22859 -48.81386 39191 ft 455 kts 257°
2026-05-07 04:02 50.21083 -48.90875 39187 ft 455 kts 257°
2026-05-07 04:02 50.19295 -49.00381 39191 ft 455 kts 256°
2026-05-07 04:03 50.17517 -49.09779 39191 ft 453 kts 256°
2026-05-07 04:03 50.15723 -49.19218 39191 ft 453 kts 256°
2026-05-07 04:04 50.13923 -49.28645 39194 ft 453 kts 256°
2026-05-07 04:04 50.12114 -49.38069 39183 ft 454 kts 256°
2026-05-07 04:05 50.10306 -49.47444 39184 ft 455 kts 256°
2026-05-07 04:05 50.08477 -49.56879 39185 ft 455 kts 256°
2026-05-07 04:06 50.06639 -49.66314 39188 ft 455 kts 256°
2026-05-07 04:06 50.04796 -49.75724 39181 ft 455 kts 256°
2026-05-07 04:07 50.02942 -49.85149 39180 ft 455 kts 255°
2026-05-07 04:07 50.01090 -49.94520 39184 ft 455 kts 255°
2026-05-07 04:08 49.99190 -50.03926 39176 ft 456 kts 253°
2026-05-07 04:08 49.96976 -50.13177 39188 ft 457 kts 251°
2026-05-07 04:09 49.94670 -50.22379 39180 ft 457 kts 251°
2026-05-07 04:09 49.92414 -50.31533 39184 ft 457 kts 252°
2026-05-07 04:10 49.90165 -50.40764 39183 ft 457 kts 252°
2026-05-07 04:10 49.87922 -50.49975 39185 ft 457 kts 252°
2026-05-07 04:11 49.85666 -50.59199 39186 ft 457 kts 252°
2026-05-07 04:11 49.83417 -50.68344 39187 ft 457 kts 251°
2026-05-07 04:12 49.81143 -50.77557 39187 ft 458 kts 251°
2026-05-07 04:12 49.78855 -50.86780 39190 ft 458 kts 251°
2026-05-07 04:13 49.76577 -50.95930 39181 ft 458 kts 251°
2026-05-07 04:13 49.74277 -51.05127 39181 ft 458 kts 251°
2026-05-07 04:14 49.71964 -51.14340 39192 ft 458 kts 251°
2026-05-07 04:14 49.69662 -51.23475 39193 ft 459 kts 251°
2026-05-07 04:15 49.67333 -51.32675 39187 ft 459 kts 251°
2026-05-07 04:15 49.65002 -51.41847 39192 ft 459 kts 251°
2026-05-07 04:16 49.62659 -51.51030 39190 ft 459 kts 251°
2026-05-07 04:16 49.60310 -51.60194 39193 ft 459 kts 250°
2026-05-07 04:17 49.57974 -51.69275 39185 ft 458 kts 250°
2026-05-07 04:17 49.55616 -51.78405 39188 ft 458 kts 250°
2026-05-07 04:18 49.53252 -51.87522 39188 ft 458 kts 250°
2026-05-07 04:18 49.50901 -51.96624 39206 ft 457 kts 252°
2026-05-07 04:18 49.50000 -52.01303 39350 ft 455 kts 259°
2026-05-07 04:19 49.49386 -52.06079 39532 ft 453 kts 261°
2026-05-07 04:19 49.48847 -52.10858 39699 ft 453 kts 262°
2026-05-07 04:19 49.48351 -52.15566 39844 ft 452 kts 262°
2026-05-07 04:19 49.47861 -52.20370 39984 ft 453 kts 262°
2026-05-07 04:20 49.47376 -52.25148 40116 ft 453 kts 262°
2026-05-07 04:20 49.46388 -52.34729 40178 ft 455 kts 262°
2026-05-07 04:21 49.44863 -52.49133 40176 ft 454 kts 262°
2026-05-07 04:21 49.43832 -52.58728 40176 ft 454 kts 262°
2026-05-07 04:22 49.42802 -52.68239 40170 ft 453 kts 261°
2026-05-07 04:22 49.41760 -52.77790 40171 ft 452 kts 261°
2026-05-07 04:23 49.40712 -52.87325 40162 ft 452 kts 261°
2026-05-07 04:23 49.39835 -52.95246 40161 ft 452 kts 261°
2026-05-07 04:24 49.38599 -53.06319 40162 ft 452 kts 261°
2026-05-07 04:24 49.37701 -53.14306 40153 ft 452 kts 261°
2026-05-07 04:25 49.36630 -53.23759 40153 ft 452 kts 261°
2026-05-07 04:25 49.35546 -53.33254 40157 ft 449 kts 261°
2026-05-07 04:26 49.34464 -53.42662 40148 ft 447 kts 261°
2026-05-07 04:26 49.33375 -53.52060 40149 ft 447 kts 261°
2026-05-07 04:27 49.32286 -53.61388 40148 ft 447 kts 261°
2026-05-07 04:27 49.31185 -53.70758 40143 ft 447 kts 261°
2026-05-07 04:28 49.30075 -53.80125 40143 ft 445 kts 261°
2026-05-07 04:28 49.28963 -53.89446 40144 ft 444 kts 261°
2026-05-07 04:29 49.27853 -53.98683 40141 ft 442 kts 260°
2026-05-07 04:29 49.26735 -54.07920 40149 ft 439 kts 260°
2026-05-07 04:30 49.25615 -54.17108 40135 ft 439 kts 260°
2026-05-07 04:30 49.24494 -54.26249 40139 ft 439 kts 260°
2026-05-07 04:31 49.23359 -54.35431 40146 ft 439 kts 260°
2026-05-07 04:31 49.22217 -54.44617 40154 ft 439 kts 260°
2026-05-07 04:32 49.21067 -54.53793 40144 ft 439 kts 260°
2026-05-07 04:32 49.19919 -54.62899 40153 ft 438 kts 259°
2026-05-07 04:33 49.18764 -54.71994 40149 ft 434 kts 259°
2026-05-07 04:33 49.17610 -54.81024 40135 ft 433 kts 259°
2026-05-07 04:34 49.16446 -54.90075 40141 ft 432 kts 259°
2026-05-07 04:34 49.15285 -54.99040 40132 ft 432 kts 259°
2026-05-07 04:35 49.14114 -55.08026 40124 ft 431 kts 259°
2026-05-07 04:35 49.12933 -55.17031 40132 ft 431 kts 259°
2026-05-07 04:36 49.11754 -55.25966 40151 ft 431 kts 259°
2026-05-07 04:36 49.10564 -55.34928 40136 ft 429 kts 259°
2026-05-07 04:37 49.09378 -55.43803 40124 ft 428 kts 258°
2026-05-07 04:37 49.08179 -55.52717 40122 ft 428 kts 258°
2026-05-07 04:38 49.06974 -55.61617 40127 ft 428 kts 258°
2026-05-07 04:38 49.05763 -55.70516 40130 ft 428 kts 258°
2026-05-07 04:39 49.04553 -55.79344 40124 ft 428 kts 258°
2026-05-07 04:39 49.03329 -55.88231 40122 ft 428 kts 258°
2026-05-07 04:40 49.02101 -55.97093 40124 ft 427 kts 257°
2026-05-07 04:40 49.00876 -56.05879 40118 ft 425 kts 257°
2026-05-07 04:41 48.99642 -56.14667 40120 ft 424 kts 257°
2026-05-07 04:41 48.98402 -56.23452 40122 ft 424 kts 257°
2026-05-07 04:42 48.97155 -56.32234 40117 ft 424 kts 257°
2026-05-07 04:42 48.95910 -56.40949 40109 ft 424 kts 257°
2026-05-07 04:43 48.94652 -56.49710 40115 ft 424 kts 257°
2026-05-07 04:43 48.93385 -56.58482 40118 ft 423 kts 256°
2026-05-07 04:44 48.92118 -56.67203 40110 ft 422 kts 256°
2026-05-07 04:44 48.90846 -56.75907 40103 ft 422 kts 256°
2026-05-07 04:45 48.89576 -56.84552 40092 ft 422 kts 256°
2026-05-07 04:45 48.88289 -56.93263 40096 ft 422 kts 256°
2026-05-07 04:46 48.86997 -57.01955 40097 ft 421 kts 255°
2026-05-07 04:46 48.85699 -57.10643 40091 ft 422 kts 255°
2026-05-07 04:47 48.84392 -57.19337 40098 ft 428 kts 255°
2026-05-07 04:47 48.83053 -57.28194 40101 ft 430 kts 255°
2026-05-07 04:48 48.81711 -57.37035 40087 ft 430 kts 255°
2026-05-07 04:48 48.80360 -57.45882 40086 ft 430 kts 254°
2026-05-07 04:49 48.79010 -57.54666 40090 ft 430 kts 254°
2026-05-07 04:49 48.77647 -57.63491 40092 ft 430 kts 254°
2026-05-07 04:50 48.76275 -57.72320 40091 ft 430 kts 254°
2026-05-07 04:50 48.74898 -57.81139 40090 ft 430 kts 254°
2026-05-07 04:51 48.73522 -57.89906 40089 ft 428 kts 253°
2026-05-07 04:51 48.72140 -57.98665 40083 ft 426 kts 253°
2026-05-07 04:52 48.70755 -58.07392 40081 ft 426 kts 253°
2026-05-07 04:52 48.69369 -58.16073 40063 ft 426 kts 253°
2026-05-07 04:53 48.67967 -58.24811 40062 ft 427 kts 253°
2026-05-07 04:53 48.66554 -58.33574 40063 ft 428 kts 253°
2026-05-07 04:54 48.65137 -58.42321 40041 ft 428 kts 253°
2026-05-07 04:54 48.63721 -58.51013 40074 ft 428 kts 253°
2026-05-07 04:55 48.62293 -58.59732 40042 ft 426 kts 253°
2026-05-07 04:55 48.60863 -58.68417 40020 ft 425 kts 253°
2026-05-07 04:56 48.59428 -58.77091 40019 ft 425 kts 252°
2026-05-07 04:56 48.57983 -58.85772 40017 ft 425 kts 252°
2026-05-07 04:57 48.56545 -58.94378 40003 ft 425 kts 252°
2026-05-07 04:57 48.55088 -59.03047 40002 ft 425 kts 252°
2026-05-07 04:58 48.53627 -59.11702 39994 ft 425 kts 252°
2026-05-07 04:58 48.52161 -59.20341 39989 ft 423 kts 252°
2026-05-07 04:59 48.50705 -59.28887 39994 ft 422 kts 252°
2026-05-07 04:59 48.49233 -59.37474 39990 ft 422 kts 252°
2026-05-07 05:00 48.47755 -59.46051 39980 ft 422 kts 252°
2026-05-07 05:00 48.46273 -59.54616 39980 ft 422 kts 252°
2026-05-07 05:01 48.44793 -59.63122 39977 ft 422 kts 252°
2026-05-07 05:01 48.43299 -59.71675 39974 ft 422 kts 252°
2026-05-07 05:02 48.41797 -59.80230 39968 ft 422 kts 251°
2026-05-07 05:02 48.40295 -59.88744 39971 ft 422 kts 251°
2026-05-07 05:03 48.38780 -59.97289 39971 ft 422 kts 251°
2026-05-07 05:03 48.37257 -60.05839 39970 ft 423 kts 251°
2026-05-07 05:04 48.35738 -60.14327 39963 ft 422 kts 251°
2026-05-07 05:04 48.34203 -60.22862 39964 ft 422 kts 251°
2026-05-07 05:05 48.32660 -60.31401 39962 ft 423 kts 251°
2026-05-07 05:05 48.31122 -60.39878 39986 ft 422 kts 251°
2026-05-07 05:06 48.29572 -60.48380 39951 ft 422 kts 251°
2026-05-07 05:06 48.28016 -60.56872 39949 ft 421 kts 251°
2026-05-07 05:07 48.26461 -60.65320 39933 ft 421 kts 251°
2026-05-07 05:07 48.24893 -60.73801 39932 ft 421 kts 251°
2026-05-07 05:08 48.23319 -60.82273 39932 ft 421 kts 251°
2026-05-07 05:08 48.21747 -60.90700 39919 ft 421 kts 250°
2026-05-07 05:09 48.20160 -60.99164 39920 ft 421 kts 250°
2026-05-07 05:09 48.18566 -61.07633 39929 ft 423 kts 250°
2026-05-07 05:10 48.16959 -61.16125 39901 ft 423 kts 250°
2026-05-07 05:10 48.15355 -61.24569 39909 ft 423 kts 250°
2026-05-07 05:11 48.13737 -61.33048 39910 ft 423 kts 250°
2026-05-07 05:11 48.12110 -61.41536 39889 ft 424 kts 250°
2026-05-07 05:12 48.10473 -61.50033 39893 ft 424 kts 250°
2026-05-07 05:12 48.08842 -61.58466 39891 ft 424 kts 250°
2026-05-07 05:13 48.07194 -61.66951 39886 ft 424 kts 250°
2026-05-07 05:13 48.05538 -61.75438 39887 ft 425 kts 250°
2026-05-07 05:14 48.04159 -61.82478 39887 ft 425 kts 250°
2026-05-07 05:14 48.02491 -61.90958 39873 ft 425 kts 250°
2026-05-07 05:15 48.00812 -61.99451 39873 ft 426 kts 250°
2026-05-07 05:15 47.99123 -62.07957 39873 ft 427 kts 250°
2026-05-07 05:16 47.97443 -62.16387 39863 ft 427 kts 249°
2026-05-07 05:16 47.95741 -62.24894 39896 ft 427 kts 250°
2026-05-07 05:17 47.94031 -62.33395 39862 ft 428 kts 250°
2026-05-07 05:17 47.92322 -62.41854 39837 ft 428 kts 250°
2026-05-07 05:18 47.90598 -62.50352 39848 ft 428 kts 250°
2026-05-07 05:18 47.88865 -62.58863 39848 ft 428 kts 250°
2026-05-07 05:19 47.87137 -62.67311 39835 ft 428 kts 250°
2026-05-07 05:19 47.85394 -62.75800 39834 ft 429 kts 249°
2026-05-07 05:20 47.83642 -62.84293 39843 ft 429 kts 249°
2026-05-07 05:20 47.81883 -62.92782 39825 ft 429 kts 250°
2026-05-07 05:21 47.79236 -63.05494 39823 ft 428 kts 250°
2026-05-07 05:22 47.77476 -63.13902 39809 ft 428 kts 249°
2026-05-07 05:22 47.75695 -63.22374 39812 ft 428 kts 249°
2026-05-07 05:23 47.73921 -63.30778 39815 ft 428 kts 249°
2026-05-07 05:23 47.72129 -63.39231 39796 ft 428 kts 249°
2026-05-07 05:24 47.70332 -63.47672 39795 ft 429 kts 249°
2026-05-07 05:24 47.68526 -63.56119 39796 ft 429 kts 249°
2026-05-07 05:25 47.66715 -63.64558 39783 ft 429 kts 249°
2026-05-07 05:25 47.64908 -63.72943 39782 ft 429 kts 249°
2026-05-07 05:26 47.63080 -63.81388 39779 ft 429 kts 249°
2026-05-07 05:26 47.61250 -63.89812 39780 ft 429 kts 249°
2026-05-07 05:27 47.59425 -63.98179 39783 ft 429 kts 249°
2026-05-07 05:27 47.57578 -64.06608 39779 ft 429 kts 249°
2026-05-07 05:28 47.55728 -64.15021 39767 ft 430 kts 249°
2026-05-07 05:28 47.53882 -64.23381 39768 ft 429 kts 249°
2026-05-07 05:29 47.52016 -64.31797 39758 ft 429 kts 249°
2026-05-07 05:29 47.50146 -64.40199 39757 ft 429 kts 249°
2026-05-07 05:30 47.48281 -64.48547 39752 ft 430 kts 249°
2026-05-07 05:30 47.46397 -64.56941 39738 ft 430 kts 249°
2026-05-07 05:31 47.44507 -64.65334 39753 ft 430 kts 249°
2026-05-07 05:31 47.42604 -64.73746 39738 ft 431 kts 249°
2026-05-07 05:32 47.40708 -64.82100 39730 ft 432 kts 249°
2026-05-07 05:32 47.38790 -64.90504 39755 ft 431 kts 249°
2026-05-07 05:33 47.36850 -64.98888 39714 ft 432 kts 249°
2026-05-07 05:33 47.34866 -65.07266 39696 ft 432 kts 248°
2026-05-07 05:34 47.32844 -65.15623 39716 ft 432 kts 248°
2026-05-07 05:34 47.30764 -65.23920 39772 ft 431 kts 247°
2026-05-07 05:35 47.28634 -65.32151 39681 ft 434 kts 246°
2026-05-07 05:35 47.26420 -65.40424 39657 ft 433 kts 246°
2026-05-07 05:36 47.24149 -65.48637 39721 ft 431 kts 246°
2026-05-07 05:36 47.21827 -65.56780 39704 ft 432 kts 245°
2026-05-07 05:37 47.19456 -65.64857 39647 ft 433 kts 245°
2026-05-07 05:37 47.17004 -65.72958 39664 ft 432 kts 244°
2026-05-07 05:38 47.14505 -65.80974 39700 ft 431 kts 244°
2026-05-07 05:38 47.11930 -65.88958 39656 ft 433 kts 243°
2026-05-07 05:39 47.09286 -65.96856 39587 ft 434 kts 242°
2026-05-07 05:39 47.06557 -66.04740 39640 ft 432 kts 242°
2026-05-07 05:40 47.03764 -66.12536 39665 ft 431 kts 241°
2026-05-07 05:40 47.00896 -66.20281 39617 ft 433 kts 240°
2026-05-07 05:41 46.97969 -66.27942 39569 ft 433 kts 239°
2026-05-07 05:41 46.94957 -66.35553 39643 ft 431 kts 239°
2026-05-07 05:42 46.91887 -66.43094 39645 ft 431 kts 238°
2026-05-07 05:42 46.88782 -66.50553 39605 ft 432 kts 238°
2026-05-07 05:43 46.85596 -66.58020 39577 ft 433 kts 237°
2026-05-07 05:43 46.82331 -66.65401 39603 ft 432 kts 236°
2026-05-07 05:44 46.78971 -66.72663 39603 ft 431 kts 235°
2026-05-07 05:44 46.75532 -66.79796 39581 ft 432 kts 234°
2026-05-07 05:45 46.71971 -66.86880 39552 ft 432 kts 233°
2026-05-07 05:45 46.68312 -66.93855 39561 ft 432 kts 233°
2026-05-07 05:46 46.64606 -67.00655 39605 ft 431 kts 232°
2026-05-07 05:46 46.60789 -67.07393 39568 ft 431 kts 231°
2026-05-07 05:47 46.56863 -67.14029 39530 ft 433 kts 230°
2026-05-07 05:47 46.52845 -67.20542 39564 ft 432 kts 229°
2026-05-07 05:48 46.48761 -67.26924 39592 ft 431 kts 228°
2026-05-07 05:48 46.44626 -67.33186 39560 ft 433 kts 227°
2026-05-07 05:49 46.40372 -67.39397 39520 ft 434 kts 226°
2026-05-07 05:49 46.36033 -67.45466 39557 ft 432 kts 225°
2026-05-07 05:50 46.31640 -67.51308 39611 ft 431 kts 224°
2026-05-07 05:50 46.27111 -67.57041 39537 ft 433 kts 223°
2026-05-07 05:51 46.22464 -67.62630 39453 ft 434 kts 221°
2026-05-07 05:51 46.17751 -67.67989 39498 ft 433 kts 220°
2026-05-07 05:52 46.12922 -67.73164 39554 ft 432 kts 219°
2026-05-07 05:52 46.07984 -67.78155 39482 ft 434 kts 217°
2026-05-07 05:53 46.02935 -67.82967 39420 ft 436 kts 216°
2026-05-07 05:53 45.97785 -67.87575 39507 ft 435 kts 214°
2026-05-07 05:54 45.92546 -67.91954 39535 ft 435 kts 213°
2026-05-07 05:54 45.87237 -67.96087 39480 ft 437 kts 211°
2026-05-07 05:55 45.81786 -68.00014 39449 ft 438 kts 210°
2026-05-07 05:55 45.76241 -68.03659 39526 ft 438 kts 208°
2026-05-07 05:56 45.70605 -68.07020 39516 ft 439 kts 206°
2026-05-07 05:56 45.64865 -68.10121 39416 ft 442 kts 205°
2026-05-07 05:57 45.59021 -68.12952 39433 ft 443 kts 203°
2026-05-07 05:57 45.53150 -68.15476 39485 ft 443 kts 201°
2026-05-07 05:58 45.47159 -68.17723 39442 ft 446 kts 199°
2026-05-07 05:58 45.41086 -68.19656 39391 ft 448 kts 198°
2026-05-07 05:59 45.34979 -68.21248 39433 ft 449 kts 195°
2026-05-07 05:59 45.28784 -68.22539 39465 ft 450 kts 194°
2026-05-07 06:00 45.22544 -68.23504 39427 ft 453 kts 192°